Welcome to the New NWS' Forecast!
Most changes are behind the scenes, but click here for differences you might notice.
Latest weather observations around

East Milton (KMQE)

Using English Units (Switch to International System of Units)
Date/ Time (EST) Wind (mph) Vis. (mi) Weather Sky Cond. Temp (°F) Rel. Humidity Wind Chill (°F) Heat Index (°F) Pressure Precip. (in)
Air Dwpt 6 hour Altimeter (inHg) Sea level (inHg) 1 hr 3 hr 6 hr
Max Min
Dec 09 14:56 SW 13   Clear   31 17     56% 21   30.22 30.28      
Dec 09 13:56 SW 10   Clear   32 16     51% 24   30.24 30.3      
Dec 09 12:56 WSW 10   Clear   32 16     51% 24   30.27 30.33      
Dec 09 11:56 WSW 10   Clear   32 17     54% 24   30.29 30.34      
Dec 09 10:56 WSW 9   Clear   28 17     63% 19   30.33 30.39      
Dec 09 09:56 WSW 7   Clear   24 16     71% 16   30.38 30.44      
Dec 09 08:56 WSW 8   Clear   21 14     74% 11   30.38 30.45      
Dec 09 07:56 WSW 9   Clear   18 13     80% 7   30.39 30.46      
Dec 09 06:56 WSW 9   Clear   18 13     80% 7   30.39 30.46      
Dec 09 05:56 W 11   Clear   18 13     80% 5   30.4 30.47      
Dec 09 04:56 WNW 10   Clear   18 13     80% 6   30.4 30.46      
Dec 09 03:56 W 14   Clear   18 12     77% 4   30.4 30.47      
Dec 09 02:56 W 14   Clear   18 11     74% 4   30.43 30.49      
Dec 09 01:56 W 11   Clear   18 9     67% 5   30.43 30.49      
Dec 09 00:56 WSW 9   Clear   19 4     51% 8   30.43 30.49      
Dec 08 23:56 WSW 8   Clear   19 2     47% 9   30.43 30.49      
Dec 08 22:56 WSW 3   Clear   20 3     47% 15   30.42 30.48      
Dec 08 21:56 NNW 9   Clear   20 2     45% 9   30.42 30.48      
Dec 08 20:56 NNW 8   Clear   19 3     49% 9   30.43 30.5      
Dec 08 19:56 NNW 7   Clear   20 3     47% 11   30.43 30.5      
Dec 08 18:56 NW 8   Clear   21 3     45% 11   30.41 30.47      
Dec 08 17:56 NW 8   Clear   22 3     43% 13   30.39 30.46      
Dec 08 16:56 NW 10   Clear   22 5     48% 11   30.37 30.44      
Dec 08 15:56 NW 11   Clear   24 4     41% 13   30.35 30.41      
Dec 08 14:56 WNW 15   Clear   25 4     40% 13   30.33 30.39      
Dec 08 13:56 WNW 18   Clear   25 2     36% 11   30.33 30.39      
Dec 08 12:56 WNW 8   Clear   25 4     40% 16   30.34 30.4      
Dec 08 11:56 NW 10   Clear   24 4     41% 14   30.35 30.42      
Dec 08 10:56 NW 8   Clear   22 6     50% 13   30.37 30.43      
Dec 08 09:56 WNW 13   Clear   20 6     54% 7   30.39 30.45      
Dec 08 08:56 WNW 7   Clear   18 7     62% 9   30.38 30.44      
Dec 08 07:56 NW 7   Clear   16 6     64% 6   30.36 30.42      
Dec 08 06:56 NW 6   Clear   15 5     64% 6   30.34 30.41      
Dec 08 05:56 NW 7   Clear   15 6     67% 5   30.34 30.4      
Dec 08 04:56 NW 8   Clear   16 6     64% 5   30.35 30.41      
Dec 08 03:56 WNW 9   Clear   16 9     73% 4   30.35 30.41      
Dec 08 02:56 NW 8   Clear   18 5     56% 8   30.34 30.4      
Dec 08 01:56 NW 9   Clear   19 5     54% 8   30.33 30.39      
Dec 08 00:56 NW 9   Clear   20 7     57% 9   30.33 30.39      
Dec 07 23:56 NW 10   Clear   20 11     68% 9   30.34 30.4      
Dec 07 22:56 NW 9   Clear   21 10     62% 11   30.33 30.38      
Dec 07 21:56 NW 11   Clear   23 8     52% 12   30.33 30.38      
Dec 07 20:56 NW 9   Clear   25 7     46% 16   30.32 30.37      
Dec 07 18:56 NW 13   Clear   24 12     60% 12   30.28 30.34      
Dec 07 17:56 WNW 7   Clear   26 10     50% 18   30.27 30.32      
Dec 07 16:56 WNW 10   Clear   28 9     44% 19   30.24 30.3      
Dec 07 15:56 WNW 14   Clear   30 7     37% 19   30.21 30.26      
Dec 07 14:56 WNW 16   Clear   33 8     35% 23   30.19 30.25      
Dec 07 13:56 WNW 17   Clear   34 10     36% 23   30.19 30.24      
Dec 07 12:56 W 18   Clear   35 11     36% 24   30.16 30.21     1
Dec 07 11:56 NW 10   Clear   35 13     40% 27   30.17 30.22      
Dec 07 10:56 WNW 10   Clear   34 15     45% 26   30.18 30.23 1    
Dec 07 09:56 WNW 17   Clear   34        % 23   30.17 30.22      
Dec 07 08:56 WNW 14   Clear   32        % 22   30.15 30.2      
Dec 07 06:56 W 15   Clear   29 25     85% 18   30.11 30.16      
Dec 07 05:56 W 17   Clear   29 25     85% 17   30.08 30.14      
Dec 07 04:56 WSW 13   Clear   29 26     89% 19   30.06 30.11      
Dec 07 02:56 WSW 10   Clear   30 26     85% 21   30.05 30.11      
Dec 07 01:56 SW 10   Clear   30 25     81% 21   30.05 30.1      
Dec 07 00:56 SW 14   Clear   32 22     66% 22   30.04 30.09      
Dec 06 23:56 SW 11   Clear   32 20     61% 23   30.04 30.09      
Dec 06 22:56 SW 14   Clear   32 19     58% 22   30.05 30.1      
Dec 06 21:56 SW 14   Clear   32 19     58% 22   30.07 30.12      
Dec 06 20:56 SW 11   Clear   31 19     61% 22   30.07 30.12      
Dec 06 19:56 SW 13   Clear   32 19     58% 22   30.07 30.12      
Dec 06 18:56 SW 11   Clear   32 19     58% 23   30.06 30.11      
Dec 06 17:56 SW 9   Clear   32 19     58% 24   30.05 30.11      
Dec 06 16:56 W 13   Clear   33 19     56% 24   30.06 30.11      
Dec 06 15:56 W 10   Clear   34 19     54% 26   30.05 30.1      
Dec 06 14:56 W 18   Clear   34 19     54% 23   30.03 30.08      
Dec 06 13:56 W 13   Clear   35 19     52% 26   30.02 30.07      
Dec 06 12:56 W 15   Clear   36 18     48% 27   30.01 30.06      
Dec 06 11:56 W 16   Clear   36 18     48% 26   30.02 30.08      
Dec 06 10:56 W 18   Clear   34 19     54% 23   30.05 30.1      
Dec 06 09:56 W 14   Clear   31 18     58% 21   30.08 30.13      
Dec 06 08:56 W 9   Clear   28 18     65% 19   30.07 30.13      
Dec 06 07:56 W 10   Clear   25 17     71% 15   30.07 30.12      
Dec 06 06:56 W 11   Clear   24 17     74% 13   30.05 30.11      
Dec 06 05:56 WSW 8   Clear   24 17     74% 15   30.04 30.09      
Dec 06 04:56 W 8   Clear   25 18     74% 16   30.02 30.08      
Dec 06 03:56 W 9   Clear   26 18     71% 17   30.03 30.09      
Dec 06 02:56 W 7   Clear   27 18     68% 19   30.04 30.09      
Dec 06 01:56 W 8   Clear   27 17     66% 19   30.03 30.09      
Dec 06 00:56 WNW 7   Clear   26 20     77% 18   30.01 30.06      
Dec 05 23:56 WNW 7   Clear   27 20     75% 19   30.02 30.07      
Dec 05 22:56 WNW 3   Clear   27 20     75% 23   30.02 30.07      
Dec 05 21:56 NW 3   Clear   27 17     66% 23   30.02 30.07      
Dec 05 20:56 NNW 5   Clear   28 14     55% 23   29.99 30.05      
Dec 05 18:56 NNW 5   Clear   28 14     55% 23   30 30.06     0
Dec 05 17:56 N 6   Clear   29 13     51% 23   30.01 30.06      
Dec 05 16:56 N 6   Clear   29 13     51% 23   30 30.06      
Dec 05 15:56 NE 3   Clear   30 14     51% 27   30 30.05   0  
Dec 05 14:56 3   Clear   32 13     45% 29   29.99 30.05      
Dec 05 13:56 Calm   Clear   32 12     43%     29.99 30.05 0    
Dec 05 12:56 6   Clear   32 12     43% 26   30 30.05      
Dec 05 11:56 NNW 6   Clear   30 13     48% 24   30.02 30.08      
Dec 05 10:56 WNW 6   Clear   28 13     53% 22   30.05 30.11      
Dec 05 09:56 3   Clear   26 13     57% 22   30.08 30.14      
Dec 05 08:56 WNW 5   Clear   23 15     71% 17   30.08 30.14      
Dec 05 07:56 NNW 6   Clear   21 12     68% 13   30.07 30.12      
Dec 05 06:56 NNW 10   Clear   20 11     68% 9   30.04 30.1      
Dec 05 05:56 NW 10   Clear   20 12     71% 9   30.04 30.1      
Dec 05 04:56 NW 6   Clear   19 12     74% 11   30.05 30.11      
Dec 05 03:56 N 7   Clear   20 12     71% 11   30.04 30.09      
Dec 05 02:56 N 7   Clear   20 12     71% 11   30.04 30.09      
Dec 05 01:56 NNW 8   Clear   21 11     65% 11   30.03 30.08      
Dec 05 00:56 NNW 8   Clear   21 12     68% 11   30.02 30.08      
Dec 04 23:56 NNW 7   Clear   22 11     62% 13   30.02 30.08      
Dec 04 22:56 NNW 10   Clear   23 11     59% 12   30.01 30.07      
Dec 04 21:56 NNW 7   Clear   24 11     57% 16   30.01 30.06      
Dec 04 20:56 NNW 13   Clear   25 10     53% 14   29.99 30.04      
Dec 04 19:56 NNW 10   Clear   25 10     53% 15   29.98 30.03      
Dec 04 18:56 NNW 15   Clear   26 9     48% 14   29.95 30      
Dec 04 17:56 NW 10   Clear   27 11     50% 17   29.92 29.98      
Dec 04 16:56 NW 11   Clear   28 12     51% 18   29.9 29.96      
Dec 04 15:56 WNW 14   Clear   30 13     48% 19   29.88 29.93      
Dec 04 14:56 WNW 13   Clear   33 14     45% 24   29.85 29.9      
Dec 04 13:56 WNW 11   Clear   35 16     45% 27   29.83 29.87      
Dec 04 12:56 WNW 15   Clear   36 18     48% 27   29.8 29.85      
Dec 04 11:56 NW 15   Clear   36 18     48% 27   29.8 29.85      
Dec 04 10:56 NW 15   Clear   35 20     54% 26   29.81 29.85      
Dec 04 09:56 NNW 15   Clear   35 19     52% 26   29.81 29.85      
Dec 04 08:56 NW 20   Clear and Windy   34 20     56% 23   29.79 29.83      
Dec 04 07:56 NW 8   Clear   32 20     61% 25   29.78 29.82      
Dec 04 06:56 NW 13   Clear   30 20     66% 20   29.75 29.8      
Dec 04 05:56 NW 13   Clear   31 21     66% 21   29.73 29.78      
Dec 04 04:56 NW 11   Clear   31 21     66% 22   29.72 29.77      
Dec 04 03:56 NW 14   Clear   31 21     66% 21   29.7 29.74      
Dec 04 02:56 NW 14   Clear   33 23     66% 23   29.68 29.72      
Dec 04 01:56 NW 10   Clear   36 27     70% 29   29.65 29.69      
Dec 04 00:56 NW 14   Clear   38 30     73% 30   29.62 29.66      
Dec 03 23:56 WNW 18   Clear   38 29     70% 28   29.61 29.65      
Dec 03 22:56 WNW 16   Clear   39 30     70% 30   29.6 29.63      
Dec 03 21:56 W 13   Clear   42 33     70% 35   29.59 29.62      
Dec 03 20:56 W 17   Clear   42 33     70% 34   29.57 29.61      
Dec 03 19:56 W 13   Clear   43 32     65% 36   29.58 29.62      
Dec 03 18:56 W 17   Clear   43 32     65% 35   29.57 29.6      
Dec 03 17:56 W 13   Clear   44 31     60% 38   29.56 29.59      
Dec 03 16:56 W 22   Clear and Windy   45 33     63% 37   29.54 29.57      
Dec 03 15:56 W 14   Clear   48 34     58% 42   29.52 29.56      
Dec 03 14:56 WNW 9   Clear   49 37     63% 45   29.51 29.54      
Dec 03 13:56 W 16   Clear   49 36     61% 43   29.5 29.53      
Dec 03 12:56 WNW 16   Clear   50 37     61%     29.49 29.52      
Dec 03 11:56 W 22   Clear and Windy   53 42     66%     29.48 29.51      
Dec 03 10:56 W 15   Clear   54 47     77%     29.49 29.52      
Dec 03 09:56 WSW 10   Clear   51 50     96%     29.51 29.54      
Dec 03 08:56 SW 14   Clear   48 48     100% 42   29.51 29.55      
Dec 03 07:56 SSW 13   Clear   47 47     100% 41   29.51 29.54      
Dec 03 06:56 WSW 10   Clear   48 48     100% 43   29.52 29.55      
Dec 03 05:56 SSW 15   Clear   48 48     100% 42   29.5 29.54      
Dec 03 04:56 SSW 10   Clear   48 48     100% 43   29.5 29.53      
Dec 03 03:56 SW 10   Clear   47 47     100% 42   29.51 29.54      
Dec 03 02:56 WSW 10   Clear   48 48     100% 43   29.53 29.57      
Dec 03 01:56 WSW 9   Clear   47 47     100% 43   29.54 29.57      
Dec 03 00:56 W 7   Clear   45 45     100% 41   29.54 29.58     0
Dec 02 23:56 W 14   Clear   48 48     100% 42   29.55 29.58      
Dec 02 22:56 WNW 8   Clear   44 44     100% 40   29.57 29.61      
Dec 02 21:56 WNW 7   Clear   45 45     100% 41   29.58 29.62 0 0  
Dec 02 20:56 NW 8   Clear   45 45     100% 41   29.6 29.63      
Dec 02 19:56 SW 8   Clear   49 49     100% 45   29.59 29.62      
Dec 02 18:56 SW 11   Clear   49 49     100% 44   29.59 29.63     0
Dec 02 17:56 WSW 8   Clear   49 49     100% 45   29.6 29.63      
Dec 02 16:56 SW 10   Clear   51 51     100%     29.6 29.64      
Dec 02 15:56 SW 11   Clear   51 51     100%     29.61 29.65 0 0  
Dec 02 14:56 S 10   Clear   50 50     100%     29.63 29.67 0    
Dec 02 13:56 SSE 11   Clear   49 49     100% 44   29.65 29.69 0    
Dec 02 12:56 SSE 8   Clear   47 47     100% 43   29.71 29.75 0   0
Dec 02 11:56 SE 13   Clear   45 45     100% 39   29.76 29.8 0    
Dec 02 10:56 ESE 14   Clear   44 44     100% 37   29.83 29.88 0    
Dec 02 09:56 ESE 18   Clear   42 42     100% 34   29.9 29.94 0 0  
Dec 02 08:56 ESE 15   Clear   41 41     100% 33   29.94 29.99 0    
Dec 02 07:56 ESE 14   Clear   39 39     100% 31   29.97 30.01 0    
Dec 02 06:56 E 13   Clear   38 38     100% 30   30 30.05 0   0
Dec 02 05:56 E 14   Clear   37 37     100% 28   30.05 30.09 0    
Dec 02 04:56 ESE 14   Clear   36 36     100% 27   30.04 30.09 0    
Dec 02 03:56 ESE 10   Clear   36 36     100% 29   30.07 30.11 0 0  
Dec 02 02:56 SE 11   Clear   36 35     96% 28   30.08 30.13      
Dec 02 01:56 ESE 13   Clear   36 33     89% 27   30.09 30.14      
Dec 02 00:56 SE 9   Clear   36 33     89% 29   30.12 30.16      
Dec 01 23:56 ESE 8   Clear   37 34     89% 31   30.15 30.2      
Dec 01 22:56 ESE 8   Clear   37 32     82% 31   30.18 30.23      
Dec 01 20:56 ESE 8   Clear   36 32     85% 30   30.19 30.24      
Dec 01 19:56 ESE 9   Clear   35 30     82% 28   30.18 30.23      
Dec 01 18:56 SE 8   Clear   33 29     85% 26   30.2 30.25      
Dec 01 17:56 SE 8   Clear   34 29     82% 27   30.18 30.24      
Dec 01 16:56 ESE 9   Clear   36 29     75% 29   30.18 30.23      
Dec 01 15:56 E 9   Clear   37 29     72% 30   30.17 30.22      
Dec 01 14:56 Calm   Clear   40 28     62%     30.17 30.22      
Dec 01 13:56 Calm   Clear   40 28     62%     30.15 30.2      
Dec 01 12:56 WNW 6   Clear   40 28     62% 36   30.17 30.22      
Dec 01 11:56 3   Clear   38 27     64% 36   30.14 30.19      
Dec 01 10:56 3   Clear   38 27     64% 36   30.16 30.21      
Dec 01 09:56 3   Clear   37 27     67% 35   30.16 30.2      
Dec 01 08:56 NNW 8   Clear   33 27     78% 26   30.15 30.19      
Dec 01 07:56 NNW 10   Clear   30 26     85% 21   30.14 30.19      
Dec 01 06:56 NNW 14   Clear   29 26     89% 18   30.12 30.17      
Dec 01 05:56 NW 13   Clear   28 26     92% 17   30.13 30.18      
Dec 01 04:56 NW 9   Clear   29 26     89% 20   30.08 30.12      
Dec 01 03:56 NW 9   Clear   29 27     92% 20   30.06 30.11      
Dec 01 02:56 NW 7   Clear   30 28     92% 23   30.07 30.11      
Dec 01 01:56 NW 6   Clear   31 29     92% 25   30.07 30.11      
Dec 01 00:56 WNW 8   Clear   30 29     96% 22   30.05 30.1      
Nov 30 23:56 WNW 8   Clear   29 28     96% 21   30.04 30.09      
Nov 30 22:56 WNW 7   Clear   30 28     92% 23   30.04 30.09      
Nov 30 21:56 WNW 6   Clear   31 28     89% 25   30.02 30.07      
Nov 30 20:56 W 7   Clear   33 29     85% 27   30.03 30.08      
Nov 30 19:56 W 5   Clear   34 29     82% 30   30.01 30.06      
Nov 30 18:56 W 6   Clear   34 28     79% 29   30.01 30.06      
Nov 30 17:56 WNW 7   Clear   35 27     72% 29   30 30.05      
Nov 30 16:56 WNW 6   Clear   36 27     70% 31   30 30.05      
Nov 30 15:56 3   Clear   37 27     67% 35   29.99 30.04      
Nov 30 14:56 Calm   Clear   37 26     64%     29.98 30.03      
Nov 30 13:56 WSW 5   Clear   37 27     67% 33   29.97 30.01      
Nov 30 12:56 WSW 6   Clear   37 27     67% 32   29.97 30.02      
Nov 30 11:56 WSW 5   Clear   37 26     64% 33   29.98 30.03      
Nov 30 10:56 Calm   Clear   36 27     70%     29.99 30.04      
Nov 30 09:56 NNW 6   Clear   35 27     72% 30   30.01 30.06      
Nov 30 08:56 NW 6   Clear   32 26     78% 26   30 30.05      
Nov 30 07:56 NW 7   Clear   29 26     89% 22   29.99 30.04      
Nov 30 06:56 WNW 8   Clear   27 25     92% 19   29.98 30.03      
Nov 30 05:56 NW 9   Clear   28 25     88% 19   29.96 30.01      
Nov 30 04:56 NW 9   Clear   28 25     88% 19   29.94 29.99      
Nov 30 03:56 NW 10   Clear   29 25     85% 20   29.94 29.98      
Nov 30 02:56 NW 11   Clear   30 26     85% 21   29.93 29.97      
Nov 30 01:56 NW 10   Clear   29 26     89% 20   29.92 29.97      
Nov 30 00:56 NW 10   Clear   31 26     82% 22   29.9 29.94      
Nov 29 23:56 NW 10   Clear   31 26     82% 22   29.9 29.95      
Nov 29 22:56 NW 9   Clear   32 26     78% 24   29.88 29.92      
Nov 29 21:56 NW 11   Clear   33 26     75% 24   29.85 29.9      
Nov 29 20:56 NW 13   Clear   34 27     75% 25   29.84 29.88      
Nov 29 19:56 NW 16   Clear   35 26     69% 25   29.82 29.87      
Nov 29 18:56 NW 13   Clear   35 27     72% 26   29.81 29.86      
Nov 29 17:56 NW 14   Clear   36 26     67% 27   29.8 29.84      
Nov 29 16:56 NW 17   Clear   37 27     67% 27   29.77 29.82      
Nov 29 15:56 NW 22   Clear and Windy   38 27     64% 27   29.75 29.8      
Nov 29 14:56 NW 16   Clear   39 27     62% 30   29.73 29.77      
Nov 29 13:56 NW 23   Clear and Windy   40 26     57% 30   29.7 29.74      
Nov 29 12:56     Clear   40 27     60%     29.69 29.73      
Nov 29 11:56 NW 24   Clear and Windy   41 27     57% 31   29.68 29.72      
Nov 29 10:56 NW 13   Clear   41 28     60% 34   29.7 29.74      
Nov 29 09:56 NW 14   Clear   41 27     57% 33   29.69 29.73      
Nov 29 08:56 NW 25   Clear and Windy   38 26     62% 27   29.67 29.72      
Nov 29 07:56 NW 14   Clear   35 27     72% 26   29.66 29.71      
Nov 29 06:56 NW 14   Clear   34 27     75% 25   29.65 29.69      
Nov 29 05:56 NW 14   Clear   33 27     78% 23   29.62 29.67      
Nov 29 04:56 NW 16   Clear   34 27     75% 24   29.58 29.62      
Nov 29 03:56 WNW 16   Clear   34 28     79% 24   29.56 29.6      
Nov 29 02:56 NW 13   Clear   34 28     79% 25   29.53 29.57      
Nov 29 01:56 NW 16   Clear   34 28     79% 24   29.5 29.54      
Nov 29 00:56 WNW 16   Clear   34 28     79% 24   29.48 29.53      
Nov 28 23:56 NW 16   Clear   34 28     79% 24   29.47 29.51      
Nov 28 22:56 WNW 15   Clear   33 28     82% 23   29.45 29.49      
Nov 28 21:56 NW 15   Clear   34 29     82% 24   29.43 29.47      
Nov 28 20:56 WNW 18   Clear   34 29     82% 23   29.41 29.45      
Nov 28 19:56 WNW 16   Clear   35 29     78% 25   29.4 29.44      
Nov 28 18:56 WNW 15   Clear   35 30     82% 26   29.38 29.42      
Nov 28 17:56 WNW 17   Clear   36 30     79% 26   29.36 29.4      
Nov 28 16:56 WNW 16   Clear   37 28     70% 28   29.33 29.38      
Nov 28 15:56 WNW 14   Clear   38 28     67% 30   29.3 29.35      
Nov 28 14:56 WNW 13   Clear   38 29     70% 30   29.27 29.32      
Nov 28 13:56 WNW 15   Clear   37 30     76% 28   29.25 29.3      
Nov 28 12:56 WNW 17   Clear   38 29     70% 29   29.24 29.28      
Nov 28 11:56 WNW 13   Clear   38 29     70% 30   29.25 29.29      
Nov 28 10:56 WNW 15   Clear   38 29     70% 29   29.25 29.29      
Nov 28 09:56 WNW 13   Clear   37 28     70% 29   29.25 29.3      
Nov 28 08:56 W 10   Clear   34 28     79% 26   29.26 29.3      
Nov 28 07:56 W 14   Clear   33 27     78% 23   29.25 29.29      
Nov 28 06:56 W 14   Clear   32 27     81% 22   29.24 29.28      
Nov 28 05:56 W 14   Clear   32 27     81% 22   29.23 29.28      
Nov 28 04:56 W 17   Clear   31 28     89% 19   29.23 29.27      
Nov 28 03:56 WSW 10   Clear   31 28     89% 22   29.24 29.29      
Nov 28 02:56 WSW 9   Clear   32 28     85% 24   29.25 29.29      
Nov 28 01:56 WSW 13   Clear   32 29     88% 22   29.26 29.3      
Nov 28 00:56 WSW 15   Clear   32 28     85% 22   29.26 29.3      
Nov 27 23:56 WSW 13   Clear   33 28     82% 24   29.26 29.31      
Nov 27 22:56 WSW 11   Clear   33 28     82% 24   29.27 29.31      
Nov 27 21:56 SW 13   Clear   34 29     82% 25   29.28 29.32      
Nov 27 20:56 W 11   Clear   35 29     78% 27   29.27 29.31      
Nov 27 19:56 W 14   Clear   36 30     79% 27   29.27 29.31      
Nov 27 18:56 W 15   Clear   36 30     79% 27   29.28 29.31      
Nov 27 17:56 W 17   Clear   37 30     76% 27   29.26 29.3      
Nov 27 16:56 WSW 15   Clear   37 31     78% 28   29.26 29.3      
Nov 27 15:56 W 20   Clear and Windy   39 31     72% 29   29.25 29.29      
Nov 27 14:56 WSW 13   Clear   39 35     86% 31   29.25 29.28      
Nov 27 13:56 W 16   Clear   39 34     82% 30   29.22 29.26      
Nov 27 12:56 W 18   Clear   37 34     89% 27   29.22 29.26     0
Nov 27 11:56 WSW 16   Clear   38 35     89% 29   29.2 29.24      
Nov 27 10:56 WSW 20   Clear and Windy   37 36     96% 27   29.2 29.24      
Nov 27 09:56 W 16   Clear   36 36     100% 26   29.2 29.24   0  
Nov 27 08:56 W 11   Clear   39 39     100% 32   29.17 29.21 0    
Nov 27 07:56 SW 9   Clear   43 43     100% 38   29.17 29.21 0    
Nov 27 06:56 S 7   Clear   44 44     100% 40   29.17 29.21     0
Nov 27 05:56 E 7   Clear   45 45     100% 41   29.19 29.23 0    
Nov 27 04:56 ENE 15   Clear   43 43     100% 36   29.22 29.26 0    
Nov 27 03:56 ENE 23   Clear and Windy   42 42     100% 33   29.26 29.3 0 0  
Nov 27 02:56 ENE 26   Clear and Breezy   42 42     100% 32   29.32 29.36 0    
Nov 27 01:56 E 21   Clear and Windy   41 41     100% 32   29.38 29.42 0    
Nov 27 00:56 ENE 20   Clear and Windy   40 40     100% 30   29.43 29.47 0   1
Nov 26 23:56 ENE 25   Clear and Windy   40 40     100% 29   29.47 29.51 0    
Nov 26 22:56 E 22   Clear and Windy   41 41     100% 31   29.52 29.56 0    
Nov 26 21:56 E 25   Clear and Windy   41 40     96% 31   29.54 29.58 0 0  
Nov 26 20:56 E 17   Clear   40 40     100% 31   29.61 29.65 0    
Nov 26 19:56 E 22   Clear and Windy   41 41     100% 31   29.65 29.7 0    
Nov 26 18:56 E 15   Clear   41 41     100% 33   29.7 29.74 0   0
Nov 26 17:56 E 16   Clear   41 41     100% 33   29.7 29.74 0    
Nov 26 16:56 ESE 9   Clear   42 41     96% 37   29.8 29.84      
Nov 26 15:56 ESE 11   Clear   42 40     92% 36   29.76 29.8      
Nov 26 14:56 E 15   Clear   43 40     89% 36   29.77 29.81      
Nov 26 13:56 ESE 14   Clear   43 40     89% 36   29.82 29.86      
Nov 26 12:56 ESE 13   Clear   43 41     93% 36   29.84 29.89     0
Nov 26 11:56 SE 8   Clear   42 41     96% 37   29.9 29.94      
Nov 26 10:56 ESE 9   Clear   42 42     100% 37   29.9 29.94      
Nov 26 09:56 ESE 7   Clear   42 42     100% 38   29.94 29.98 0 0  
Nov 26 08:56 E 10   Clear   41 41     100% 35   29.94 29.98      
Nov 26 07:56 NE 9   Clear   39 39     100% 33   29.94 29.98      
Nov 26 06:56 NE 9   Clear   39 39     100% 33   29.94 29.99      
Nov 26 05:56 NE 5   Clear   40 40     100% 37   29.95 29.99      
Nov 26 04:56 NE 3   Clear   40 40     100% 38   29.95 30      
Nov 26 03:56 ENE 8   Clear   40 40     100% 34   29.93 29.97      
Nov 26 02:56 NE 7   Clear   40 40     100% 35   29.91 29.96      
Nov 26 01:56 E 7   Clear   40 40     100% 35   29.91 29.96      
Nov 26 00:56 ESE 6   Clear   40 40     100% 36   29.92 29.96      
Nov 25 23:56 E 7   Clear   40 40     100% 35   29.91 29.95      
Nov 25 22:56 E 5   Clear   40 40     100% 37   29.91 29.95      
Nov 25 21:56 NE 3   Clear   40 40     100% 38   29.92 29.96      
Nov 25 20:56 NW 5   Clear   40 40     100% 37   29.91 29.96      
Nov 25 19:56 NW 5   Clear   40 40     100% 37   29.91 29.96      
Nov 25 18:56 NW 5   Clear   40 40     100% 37   29.91 29.95      
Nov 25 17:56 NNW 7   Clear   40 40     100% 35   29.88 29.93      
Nov 25 16:56 WNW 6   Clear   40 40     100% 36   29.87 29.92      
Nov 25 15:56 N 7   Clear   41 41     100% 36   29.83 29.88      
Nov 25 14:56 N 9   Clear   41 41     100% 35   29.81 29.85      
May 15 04:56 SSW 14   Clear   54 54     100%     29.85 29.88      
May 14 20:56 S 11   Clear   58 52     81%     29.88 29.91      
May 13 23:56 S 10   Clear   47 46     97% 42   30.06 30.1      
May 12 16:56 NNE 8   Clear   47 47     100% 43   30.1 30.13 0 0  
May 12 02:56 NE 10   Clear   50 39     66% 46   30.15 30.18      
Jun 11 15:56 SW 18   Clear   88 58     36%   87 29.93 29.94      
Notice The following observation data may not be complete
Jun 09 13:56 WNW 15   Clear     49      %     29.63 29.65      
Notice The following observation data may not be complete
Jun 09 08:56     Clear            %              
Jun 08 21:56 SE 7   Clear   57 40     53%     29.87 29.89      
Jun 08 14:56 SE 9   Clear   73 42     33%   72 29.97 30      
Jun 08 13:56 S 9   Clear   76 44     32%   75 29.99 30.01      
Jun 08 08:56 3   Clear   65 48     54%     30.04 30.07      
Jun 07 22:56 S 10   Clear   56 38     51%     30.02 30.04      
Jun 07 19:56 ESE 7   Clear   60 41     49%     29.99 30.02      
Jun 07 14:56 NE 11   Clear   64 42     45%     29.95 29.98      
Jun 07 11:56 7   Clear   61 50     67%     29.96 29.99      
Jun 06 03:56 NE 17   Clear   49 48     97% 43   29.75 29.79 0    
Jun 05 18:56 ENE 17   Clear   51 50     96%     29.81 29.85 0